Wind_Speed
42 43 45 46 46 46 46 47 47 48 49 46 44 44 43 44 45 46 44 44 45 45 44 43 42 41 41 40 39 39 39 40 40 40 40 40 40 40 41 41 42 42 43
40 41 42 44 44 44 44 45 44 44 46 46 46 45 44 43 43 44 44 44 43 43 42 42 41 40 40 40 40 39 39 40 40 39 39 40 40 40 40 39 40 41 42
38 39 40 41 42 42 43 43 43 43 43 44 44 44 43 43 42 42 42 42 42 41 41 41 40 40 39 39 39 39 39 39 39 38 39 39 39 39 39 40 40 40 41
36 38 40 40 41 42 42 42 42 41 40 41 42 42 42 42 41 41 41 40 40 41 40 40 40 39 39 39 39 38 38 38 38 38 38 37 37 38 39 40 41 41 41
36 36 38 40 41 40 41 40 40 40 41 40 40 41 41 40 40 40 40 40 40 39 39 39 39 39 37 37 37 37 37 36 36 36 36 36 37 37 37 39 40 40 40
35 36 36 38 39 39 40 40 39 39 39 40 40 39 40 40 39 39 39 39 39 38 38 38 38 38 37 36 35 35 35 35 35 35 36 36 37 37 37 37 38 39 38
35 35 36 36 37 38 37 37 37 38 39 39 38 38 38 39 39 39 40 39 38 37 37 36 37 37 37 36 36 35 35 35 35 35 35 35 35 36 36 36 36 37 37
35 35 35 35 35 35 35 36 36 36 36 37 37 37 37 37 37 37 38 38 38 37 36 36 35 35 34 35 35 35 34 34 33 34 34 33 33 33 34 34 35 35 36
33 33 33 33 33 33 34 34 35 35 35 35 35 35 35 34 34 35 35 35 36 36 36 35 35 34 33 34 33 33 32 32 32 32 32 31 31 32 33 33 33 33 33
31 31 31 31 31 31 31 32 32 32 32 32 32 32 31 31 32 33 34 34 34 34 35 35 35 34 34 34 34 33 32 32 32 31 30 29 30 31 32 32 32 32 32
30 30 31 30 30 29 29 30 30 30 31 31 31 31 31 31 31 32 32 33 33 33 33 33 33 33 33 33 33 32 32 32 31 30 29 28 28 29 30 30 31 31 29
29 30 30 31 30 29 29 29 29 30 30 30 31 31 31 32 32 32 32 32 32 32 32 33 32 32 32 32 31 31 30 30 29 29 28 28 28 28 28 28 28 27 27
28 29 30 30 30 30 30 30 29 30 30 30 30 30 30 31 31 32 32 32 32 31 31 32 32 32 32 31 30 30 29 29 28 28 27 27 27 27 27 26 25 26 26
30 30 30 30 30 30 30 30 30 29 30 30 30 30 30 30 31 31 32 32 32 32 31 31 31 31 31 30 29 29 28 27 26 25 25 26 25 25 24 23 24 24 24
30 30 30 30 30 30 30 30 29 29 29 29 29 30 30 29 29 29 29 30 31 30 30 30 30 29 29 29 28 27 26 26 24 23 23 23 22 22 22 22 22 22 22
29 29 30 30 30 29 29 29 29 29 29 29 29 29 28 28 28 28 28 27 27 28 28 28 27 27 27 27 26 25 24 24 23 22 22 21 20 20 20 20 20 20 20
27 28 28 28 28 28 28 28 28 28 28 28 27 27 27 27 26 25 25 25 25 25 26 26 25 25 25 25 24 24 24 23 22 21 20 19 18 18 18 18 19 19 19
25 25 25 25 26 26 26 26 26 26 26 26 26 26 26 25 25 24 23 23 23 23 23 23 23 23 23 23 23 22 22 21 21 20 19 18 17 17 17 18 18 18 18
24 24 23 23 23 24 24 24 24 25 25 25 25 25 25 24 23 23 22 22 21 21 21 21 21 21 21 21 21 21 20 20 19 18 17 17 16 16 16 17 17 17 17
22 23 22 22 22 22 22 22 22 22 21 21 22 23 23 22 22 22 21 21 20 20 19 19 20 20 21 20 20 19 19 18 17 16 15 14 14 15 16 16 17 17 16
20 20 20 20 20 19 19 19 19 19 19 19 20 20 20 20 19 19 19 19 19 19 18 18 19 19 19 18 18 17 17 17 16 15 15 14 14 14 14 14 14 13 13
18 18 18 18 17 17 16 16 16 16 16 17 17 17 17 18 18 18 18 17 18 18 17 17 16 17 17 18 18 17 16 16 15 15 15 14 14 13 12 12 12 11 10
17 17 16 16 15 15 15 14 14 14 14 14 14 15 17 17 17 16 16 16 17 16 16 17 16 16 16 17 17 17 17 16 15 15 14 13 13 12 12 11 10 9 9
15 15 14 14 13 13 12 12 13 13 13 13 13 13 14 15 15 15 15 15 16 17 17 17 16 16 15 15 16 16 16 16 15 15 14 13 12 11 10 9 8 8 8
14 13 13 13 12 12 12 12 12 12 12 12 12 12 12 13 14 15 15 15 15 15 16 16 16 16 16 16 16 16 16 15 15 14 13 12 11 10 9 9 8 7 6
13 13 12 12 12 12 12 11 11 12 12 12 12 12 12 12 13 13 14 14 14 14 15 15 15 16 16 16 16 16 16 15 14 14 13 12 11 10 10 9 8 7 6
Wind_Direction
255 256 257 256 256 257 258 258 259 259 259 260 264 265 266 267 266 266 265 265 267 268 269 269 268 268 269 270 271 273 272 273 276 278 279 279 282 285 288 291 292 294 296
257 257 256 256 258 260 261 260 262 262 262 262 263 265 266 266 266 266 263 264 265 266 266 267 267 267 268 270 271 270 271 272 275 278 279 281 283 285 289 291 294 297 297
258 257 257 258 258 260 261 261 261 263 265 265 265 265 265 264 264 263 261 262 263 263 264 266 266 267 268 269 270 270 272 272 274 277 279 282 283 286 289 291 294 297 299
260 260 259 259 260 261 261 261 262 263 265 266 266 267 266 264 264 263 262 262 262 262 262 264 266 267 268 268 269 271 272 273 274 276 279 281 284 287 289 291 294 298 300
262 262 261 260 261 263 263 262 263 264 265 266 267 267 266 264 264 263 262 261 261 261 262 264 266 267 268 268 269 269 271 273 274 275 279 282 285 288 290 292 295 298 300
261 261 261 261 262 263 264 263 263 263 264 265 267 267 265 263 262 261 260 259 260 261 263 265 265 266 265 266 268 269 271 273 276 277 279 282 285 288 290 292 294 299 301
261 262 264 264 264 264 264 264 264 264 264 264 266 265 263 263 261 259 258 258 260 261 263 265 266 265 264 266 266 267 270 273 277 278 279 282 286 288 290 293 296 299 302
262 263 264 265 265 265 265 265 265 265 263 262 264 263 262 260 259 258 257 259 260 261 262 264 265 265 264 265 265 267 269 273 277 278 279 283 285 288 291 294 297 300 302
262 262 262 264 266 266 267 267 266 265 264 262 261 261 259 257 257 258 258 259 261 261 262 263 263 263 263 264 265 266 268 271 275 277 278 282 285 289 292 296 298 301 303
262 262 262 264 266 267 267 266 266 265 264 263 263 262 260 258 257 258 257 257 258 260 262 262 262 262 262 261 263 264 266 269 273 276 278 282 286 289 294 296 298 301 303
264 263 263 263 265 266 267 266 265 265 264 262 262 261 260 259 257 257 257 257 258 260 262 264 264 263 262 262 262 265 267 269 273 275 276 281 285 289 291 294 298 301 303
265 264 263 263 264 265 267 267 266 265 265 263 262 261 261 261 260 258 257 257 259 260 261 262 262 262 263 263 264 266 267 267 270 274 277 281 285 288 290 294 297 301 303
266 265 265 266 265 265 266 266 266 265 264 262 261 261 261 261 260 260 259 259 260 259 260 261 261 261 263 265 266 266 266 267 269 273 276 280 283 286 289 292 297 300 303
267 267 266 266 265 265 264 264 264 263 262 262 262 262 262 262 262 262 261 260 261 261 261 260 260 260 261 263 264 264 264 266 269 271 274 278 280 284 287 290 295 300 302
269 268 267 267 266 266 265 264 263 263 261 262 264 264 263 262 262 262 261 260 259 259 258 259 259 258 260 262 263 262 263 264 265 267 272 276 280 282 285 290 293 297 301
270 268 268 267 266 265 264 263 262 262 261 262 263 262 262 262 263 263 261 260 258 256 255 253 254 257 259 260 260 259 259 260 262 266 269 273 277 280 283 287 292 297 301
269 267 267 267 266 265 263 261 260 260 259 259 260 260 260 260 260 259 257 256 257 254 250 248 251 253 253 254 255 256 256 258 261 264 268 271 274 277 281 287 293 297 300
268 266 266 267 266 264 262 261 259 258 257 257 258 258 258 257 256 255 255 254 254 252 249 247 248 248 249 251 255 256 256 259 260 261 264 267 271 277 281 286 293 298 300
270 268 267 267 267 266 264 261 259 258 257 256 256 256 257 255 254 253 253 253 252 251 249 247 245 244 246 249 253 254 254 256 257 258 261 266 271 275 280 286 292 297 301
271 269 268 267 267 267 264 260 259 257 256 255 255 256 255 252 251 252 253 252 249 249 248 246 245 245 247 251 251 249 249 250 253 255 259 262 268 276 282 288 293 295 298
271 269 268 268 268 266 262 259 255 252 253 254 254 254 253 250 249 249 250 250 248 248 247 246 246 246 248 249 247 245 244 246 250 251 255 259 264 274 283 289 294 296 298
273 272 271 269 266 262 259 257 252 252 252 252 250 248 246 244 245 245 245 246 246 245 245 245 246 246 247 247 243 242 243 245 248 249 253 256 260 269 278 285 288 291 294
273 272 271 267 262 259 255 252 250 248 249 250 246 242 240 238 239 240 242 243 240 240 242 244 244 245 246 244 242 242 244 246 247 250 253 255 260 266 274 278 280 281 285
273 270 268 263 257 252 248 246 244 242 242 241 239 236 234 235 236 238 241 241 240 241 242 242 243 245 244 241 239 239 240 242 245 248 251 253 257 261 266 269 270 270 275
267 265 263 259 251 246 243 243 242 239 236 235 234 233 234 235 237 239 240 241 243 244 245 246 248 248 243 241 238 237 238 240 242 243 244 247 251 253 254 258 256 254 258
260 259 256 250 245 241 241 242 240 238 238 238 235 235 235 236 238 239 241 244 246 247 247 248 250 247 244 242 238 236 237 238 238 237 239 240 243 243 242 243 241 238 238
Height
5634 5636 5638 5639 5641 5642 5644 5646 5647 5649 5651 5653 5655 5656 5657 5658 5659 5659 5660 5660 5660 5660 5660 5660 5660 5660 5660 5659 5659 5658 5657 5656 5655 5655 5653 5651 5649 5647 5644 5640 5636 5632 5628
5623 5625 5627 5628 5630 5631 5632 5633 5635 5636 5638 5640 5642 5643 5645 5646 5646 5647 5648 5648 5648 5649 5649 5649 5649 5649 5649 5649 5648 5648 5647 5646 5645 5644 5643 5641 5639 5637 5634 5631 5627 5622 5618
5612 5614 5616 5618 5619 5620 5621 5622 5623 5625 5626 5628 5630 5631 5632 5633 5634 5635 5635 5636 5637 5638 5638 5638 5638 5639 5639 5638 5638 5637 5637 5636 5635 5634 5633 5631 5629 5627 5624 5621 5617 5613 5608
5603 5604 5606 5608 5609 5610 5611 5612 5613 5614 5615 5617 5618 5619 5620 5621 5622 5623 5624 5625 5626 5627 5627 5627 5628 5628 5628 5628 5628 5628 5627 5626 5626 5625 5624 5622 5620 5618 5615 5612 5608 5603 5598
5593 5595 5596 5597 5598 5599 5600 5601 5602 5603 5604 5605 5606 5608 5609 5610 5611 5612 5613 5614 5615 5616 5617 5617 5618 5618 5618 5618 5618 5618 5618 5617 5616 5615 5614 5613 5611 5608 5606 5602 5599 5594 5590
5584 5585 5586 5587 5588 5589 5590 5590 5591 5592 5594 5595 5595 5596 5597 5598 5599 5600 5601 5603 5604 5606 5607 5607 5608 5608 5608 5608 5608 5608 5608 5607 5607 5606 5605 5603 5602 5599 5597 5593 5589 5586 5581
5575 5576 5577 5578 5578 5579 5579 5580 5581 5582 5583 5584 5585 5586 5586 5587 5589 5590 5590 5592 5594 5595 5596 5597 5598 5598 5598 5599 5599 5599 5599 5598 5597 5596 5595 5594 5592 5591 5588 5584 5580 5576 5571
5566 5567 5567 5568 5568 5569 5570 5570 5571 5572 5573 5573 5574 5575 5576 5577 5578 5579 5580 5582 5583 5585 5586 5587 5588 5588 5588 5589 5589 5589 5589 5589 5588 5588 5587 5585 5583 5580 5578 5575 5571 5567 5563
5557 5558 5559 5559 5560 5560 5560 5561 5561 5562 5563 5563 5564 5565 5566 5567 5568 5569 5571 5572 5573 5575 5576 5577 5578 5579 5579 5579 5580 5580 5580 5580 5579 5578 5578 5576 5574 5572 5569 5566 5563 5560 5556
5549 5549 5550 5551 5551 5551 5551 5552 5552 5553 5553 5554 5555 5555 5556 5557 5559 5560 5561 5563 5564 5565 5566 5567 5568 5569 5570 5570 5570 5571 5571 5571 5571 5570 5569 5568 5566 5564 5561 5559 5556 5552 5548
5541 5541 5542 5542 5543 5543 5543 5543 5544 5544 5545 5546 5546 5547 5548 5549 5550 5551 5552 5553 5554 5555 5556 5557 5559 5560 5560 5560 5561 5561 5562 5562 5562 5561 5561 5559 5558 5556 5554 5551 5548 5545 5541
5532 5533 5533 5534 5534 5534 5535 5535 5535 5535 5536 5537 5537 5538 5539 5540 5541 5542 5542 5543 5544 5546 5547 5548 5549 5550 5551 5551 5551 5552 5553 5553 5553 5553 5552 5552 5550 5548 5546 5544 5541 5538 5534
5524 5524 5525 5525 5525 5525 5526 5526 5526 5527 5527 5527 5528 5529 5530 5531 5532 5532 5533 5534 5535 5536 5537 5538 5539 5541 5541 5542 5543 5543 5544 5544 5545 5545 5545 5544 5543 5541 5539 5537 5534 5531 5528
5515 5515 5516 5516 5516 5517 5517 5517 5517 5517 5518 5518 5519 5520 5521 5522 5523 5523 5524 5525 5525 5526 5527 5529 5530 5531 5532 5533 5534 5535 5535 5536 5537 5537 5537 5536 5535 5534 5532 5531 5529 5526 5523
5505 5506 5506 5507 5507 5507 5507 5508 5508 5508 5509 5509 5510 5511 5512 5513 5513 5514 5514 5515 5516 5517 5518 5519 5521 5522 5524 5525 5526 5526 5527 5528 5529 5529 5529 5529 5528 5527 5526 5525 5523 5520 5518
5496 5496 5497 5497 5498 5498 5498 5499 5498 5499 5500 5500 5501 5502 5502 5503 5504 5504 5505 5506 5507 5508 5509 5510 5512 5514 5516 5517 5518 5519 5520 5521 5522 5522 5522 5522 5522 5521 5520 5519 5517 5515 5513
5487 5487 5487 5488 5488 5488 5488 5489 5490 5490 5490 5491 5492 5493 5493 5494 5495 5496 5497 5498 5498 5499 5501 5502 5504 5506 5508 5509 5510 5512 5513 5514 5515 5515 5516 5516 5516 5516 5515 5514 5512 5510 5508
5479 5479 5478 5479 5479 5479 5479 5480 5480 5481 5482 5483 5484 5485 5485 5486 5487 5488 5489 5490 5491 5492 5493 5495 5497 5499 5500 5502 5503 5505 5506 5507 5508 5509 5510 5510 5511 5510 5510 5509 5507 5506 5503
5470 5470 5470 5470 5470 5470 5470 5471 5472 5473 5474 5475 5476 5477 5477 5478 5479 5481 5482 5483 5484 5486 5487 5488 5490 5492 5493 5495 5496 5498 5499 5500 5501 5503 5504 5505 5505 5505 5505 5504 5502 5501 5499
5462 5462 5462 5462 5462 5462 5462 5463 5464 5465 5466 5467 5468 5469 5469 5471 5472 5474 5475 5476 5478 5479 5481 5482 5484 5486 5487 5489 5490 5492 5493 5495 5496 5497 5498 5499 5500 5500 5499 5499 5497 5496 5494
5455 5455 5455 5455 5455 5455 5455 5456 5457 5458 5459 5460 5461 5461 5462 5464 5465 5467 5468 5470 5472 5474 5475 5477 5478 5480 5481 5483 5485 5486 5488 5490 5491 5492 5493 5494 5495 5495 5494 5494 5493 5492 5490
5449 5449 5448 5448 5448 5448 5449 5449 5450 5451 5452 5453 5454 5455 5456 5458 5459 5461 5463 5464 5466 5468 5469 5471 5473 5474 5476 5478 5479 5481 5483 5484 5486 5487 5488 5489 5490 5490 5490 5490 5489 5488 5487
5443 5442 5442 5442 5442 5443 5443 5444 5445 5446 5447 5448 5449 5450 5451 5453 5454 5456 5458 5459 5461 5463 5464 5466 5468 5469 5471 5472 5474 5476 5478 5480 5481 5482 5483 5484 5485 5486 5486 5485 5485 5485 5485
5437 5437 5437 5437 5437 5438 5439 5440 5441 5442 5443 5444 5445 5446 5447 5448 5450 5452 5453 5454 5456 5457 5459 5461 5462 5464 5465 5467 5469 5471 5472 5474 5476 5478 5479 5480 5481 5481 5481 5482 5482 5482 5482
5432 5432 5432 5433 5433 5434 5435 5436 5437 5438 5439 5440 5441 5442 5443 5444 5446 5447 5449 5450 5451 5453 5454 5456 5457 5459 5460 5461 5463 5465 5467 5469 5471 5473 5474 5475 5476 5477 5478 5478 5479 5479 5480
5427 5428 5428 5429 5429 5430 5431 5432 5433 5434 5435 5436 5438 5439 5440 5441 5442 5443 5445 5446 5447 5448 5450 5451 5452 5454 5455 5456 5458 5460 5462 5464 5466 5468 5470 5471 5472 5473 5474 5475 5476 5477 5477